Location: Wildcat Hills Observatory
(41.6350°N, 103.6812°W)
Time: 03:26:51
(UTC-06:00)

Cosmos 1634 Rocket - Visible Passes

Search period start: 16 September 2014 00:00
Search period end: 26 September 2014 00:00
Orbit: 959 x 993 km, 82.9° (Epoch: 15 September)

Date Brightness Start Highest point End Pass type
(mag) Time Alt. Az. Time Alt. Az. Time Alt. Az.
16 Sep 5.2 20:11:05 10° NNE 20:15:41 21° ENE 20:17:18 19° E visible
16 Sep 4.3 21:55:25 10° NNW 22:01:32 61° W 22:02:00 59° WSW visible
17 Sep 4.5 20:35:56 10° N 20:41:41 37° ENE 20:43:06 33° ESE visible
17 Sep 5.3 22:21:29 10° NNW 22:26:58 33° W 22:27:48 32° WSW visible
18 Sep 3.9 21:01:15 10° N 21:07:29 67° E 21:08:56 51° SE visible
18 Sep 6.1 22:48:08 10° NW 22:52:13 18° W 22:53:39 17° W visible
19 Sep 5.4 19:42:55 10° NNE 19:47:07 18° ENE 19:50:07 13° E visible
19 Sep 4.1 21:26:53 10° NNW 21:33:07 70° W 21:34:50 48° SSW visible
20 Sep 4.7 20:07:36 10° N 20:13:09 32° ENE 20:16:05 22° ESE visible
20 Sep 5.1 21:52:52 10° NNW 21:58:34 39° W 22:00:47 29° SW visible
21 Sep 4.0 20:32:50 10° N 20:39:00 58° E 20:42:06 30° SE visible
21 Sep 6.1 22:19:20 10° NW 22:23:52 21° W 22:26:49 15° WSW visible
22 Sep 5.5 19:14:49 10° NNE 19:18:31 16° ENE 19:22:12 10° ESE visible
22 Sep 4.0 20:58:23 10° N 21:04:40 81° W 21:08:14 28° S visible
22 Sep 6.7 22:47:27 10° WNW 22:48:58 11° WNW 22:50:30 10° W visible
23 Sep 4.9 19:39:17 10° NNE 19:44:37 28° ENE 19:49:44 11° SE visible
23 Sep 5.0 21:24:16 10° NNW 21:30:10 45° W 21:34:29 18° SSW visible
24 Sep 4.2 20:04:25 10° N 20:10:30 50° ENE 20:16:09 12° SSE visible
24 Sep 5.9 21:50:35 10° NNW 21:55:30 25° W 22:00:25 10° SW visible
25 Sep 3.9 20:29:54 10° N 20:36:13 89° E 20:42:32 10° S visible
25 Sep 6.6 22:17:56 10° NW 22:20:39 13° W 22:23:23 10° WSW visible
